SITE ID,DATE,TIME ,PO43-,,NO3- & NO2-,,NH4+ & NH3,,Si,,TDP,,TDN,,TOC,TSS,Turbidity,ALK,SALINITY,TEMP,pH,DO,Vibrio,Total Count
,M/D/Y,(2400),(�M),(�g P/L),(�M),(�g N/L),(�M),(�g N/L),(�M),(�g Si/L),(�M),(�g P/L),(�M),(�g N/L),(mgC/L),(mg/L),(NTU),(mEq/L),(PSU),(?C),(unit),(ppm),CFU/100mL,Marine Agar
,,,,,,,,,,,,,,,,,,,,,,,,CFU/100mL
"SSW28""",7/24/82,,0.11,3.4,0.14,2.0,,,2.3,66,,,,,,,,,34.466,27.0,,,,
"SSW28""",8/3/82,,0.17,5.3,0.19,2.7,,,2.9,82,,,,,,,,,34.482,27.8,,,,
"SSW28""",8/10/82,,0.08,2.5,0.28,3.9,,,3.7,104,,,,,,,,,34.458,27.6,,,,
"SSW28""",8/17/82,,0.10,3.1,0.34,4.8,,,3.9,110,,,,,,,,,34.446,27.4,,,,
"SSW28""",8/23/82,,0.10,3.1,0.43,6.0,,,6.0,170,,,,,,,,,34.537,27.6,,,,
"SSW28""",9/1/82,,0.12,3.7,0.09,1.3,,,1.8,51,,,,,,,,,34.544,27.6,,,,
"SSW28""",9/10/82,,0.12,3.7,0.18,2.5,,,3.8,106,,,,,,,,,34.540,27.9,,,,
"SSW28""",9/17/82,,0.11,3.4,0.47,6.6,,,11.5,324,,,,,,,,,34.442,27.6,,,,
"SSW28""",9/20/82,,0.08,2.5,0.18,2.5,,,3.6,101,,,,,,,,,34.395,27.6,,,,
"SSW28""",9/29/82,,0.12,3.7,0.23,3.2,,,6.2,173,,,,,,,,,34.329,27.5,,,,
"SSW28""",10/6/82,,0.21,6.5,0.17,2.4,,,4.6,130,,,,,,,,,34.403,27.5,,,,
"SSW28""",10/14/82,,0.17,5.3,0.12,1.7,,,3.5,99,,,,,,,,,34.438,27.3,,,,
"SSW28""",10/18/82,,0.15,4.6,0.14,2.0,,,3.0,83,,,,,,,,,34.572,27.6,,,,
"SSW28""",10/28/82,,0.13,4.0,0.14,2.0,,,2.1,58,,,,,,,,,34.595,27.4,,,,
"SSW28""",11/4/82,,0.11,3.4,0.14,2.0,,,2.3,65,,,,,,,,,34.595,27.6,,,,
"SSW28""",11/10/82,,0.12,3.7,0.17,2.4,,,2.3,65,,,,,,,,,34.607,27.4,,,,
"SSW28""",11/17/82,,0.11,3.4,0.19,2.7,,,2.1,60,,,,,,,,,34.670,27.2,,,,
"SSW28""",11/22/82,,0.12,3.7,0.17,2.4,,,2.3,65,,,,,,,,,34.709,26.7,,,,
"SSW28""",12/7/82,,0.13,4.0,0.11,1.5,,,3.0,85,,,,,,,,,34.627,26.2,,,,
"SSW28""",12/20/82,,0.16,5.0,0.08,1.1,,,2.1,58,,,,,,,,,34.682,25.8,,,,
"SSW28""",12/23/82,,0.20,6.2,0.19,2.7,,,7.2,201,,,,,,,,,34.694,25.2,,,,
"SSW28""",12/27/82,,0.17,5.3,0.14,2.0,,,1.9,53,,,,,,,,,34.737,25.1,,,,
"SSW28""",1/5/83,,0.16,5.0,0.11,1.5,,,3.0,85,,,,,,,,,34.635,25.3,,,,
"SSW28""",1/10/83,,0.18,5.6,0.11,1.5,,,3.4,95,,,,,,,,,34.658,25.3,,,,
"SSW28""",1/19/83,,0.16,5.0,0.08,1.1,,,2.9,80,,,,,,,,,34.760,25.4,,,,
"SSW28""",1/27/83,,0.16,5.0,0.08,1.1,,,2.9,80,,,,,,,,,34.756,24.8,,,,
"SSW28""",2/4/83,,0.16,5.0,0.11,1.5,,,2.9,80,,,,,,,,,34.776,24.9,,,,
"SSW28""",2/10/83,,0.15,4.6,0.05,0.7,,,3.7,105,,,,,,,,,34.772,24.3,,,,
"SSW28""",2/18/83,,0.18,5.6,0.14,2.0,,,3.4,95,,,,,,,,,34.792,24.7,,,,
"SSW28""",2/22/83,,0.14,4.3,0.14,2.0,,,2.9,80,,,,,,,,,34.858,24.9,,,,
"SSW28""",3/1/83,,0.04,1.2,0.10,1.4,,,3.0,83,,,,,,,,,34.874,25.1,,,,
"SSW28""",3/11/83,,0.06,1.9,0.25,3.5,,,4.1,116,,,,,,,,,34.837,25.4,,,,
"SSW28""",3/18/83,,0.06,1.9,0.21,2.9,,,3.0,83,,,,,,,,,34.855,24.9,,,,
"SSW28""",3/24/83,,0.09,2.8,0.12,1.7,,,2.8,78,,,,,,,,,34.846,24.9,,,,
"SSW28""",3/31/83,,0.10,3.1,0.12,1.7,,,2.0,55,,,,,,,,,34.753,24.9,,,,
"SSW28""",4/6/83,,0.09,2.8,0.21,2.9,,,2.8,78,,,,,,,,,34.770,25.3,,,,
"SSW28""",4/16/83,,0.12,3.7,0.21,2.9,,,3.4,94,,,,,,,,,34.730,25.2,,,,
"SSW28""",4/21/83,,0.14,4.3,0.16,2.2,,,6.5,183,,,,,,,,,34.721,25.7,,,,
"SSW28""",4/25/83,,0.10,3.1,0.12,1.7,,,3.5,99,,,,,,,,,34.780,25.2,,,,
"SSW28""",5/7/83,,0.16,5.0,0.14,2.0,,,2.7,76,,,,,,,,,34.700,25.1,,,,
"SSW28""",5/10/83,,0.15,4.6,0.03,0.4,,,3.4,96,,,,,,,,,34.701,25.2,,,,
"SSW28""",5/19/83,,0.17,5.3,0.24,3.4,,,5.4,152,,,,,,,,,34.538,25.4,,,,
"SSW28""",5/26/83,,0.18,5.6,0.07,1.0,,,3.4,96,,,,,,,,,34.710,25.2,,,,
"SSW28""",6/2/83,,0.16,5.0,0.10,1.4,,,3.2,91,,,,,,,,,34.629,25.9,,,,
"SSW28""",6/7/83,,0.17,5.3,0.14,2.0,,,3.4,96,,,,,,,,,34.795,25.6,,,,
"SSW28""",6/16/83,,0.15,4.6,0.10,1.4,,,2.9,81,,,,,,,,,34.840,26.1,,,,
"SSW28""",6/23/83,,0.15,4.6,0.07,1.0,,,2.3,66,,,,,,,,,34.844,26.2,,,,
"SSW28""",6/29/83,,0.17,5.3,0.17,2.4,,,3.6,101,,,,,,,,,34.784,26.1,,,,
"SSW28""",7/7/83,,0.17,5.3,0.24,3.4,,,4.7,131,,,,,,,,,34.764,25.9,,,,
"SSW28""",7/14/83,,0.17,5.3,0.18,2.5,,,4.9,138,,,,,,,,,34.713,25.6,,,,
"SSW28""",7/21/83,,0.16,5.0,0.15,2.1,,,2.1,59,,,,,,,,,34.774,26.2,,,,
"SSW28""",7/28/83,,0.17,5.3,0.17,2.4,,,3.9,110,,,,,,,,,34.752,26.1,,,,
"SSW28""",8/3/83,,0.18,5.6,0.36,5.0,,,4.1,114,,,,,,,,,34.775,25.9,,,,
"SSW28""",8/11/83,,0.15,4.6,0.15,2.1,,,2.7,76,,,,,,,,,34.794,26.5,,,,
"SSW28""",8/20/83,,0.15,4.6,0.12,1.7,,,3.1,86,,,,,,,,,34.766,26.5,,,,
"SSW28""",8/26/83,,0.16,5.0,0.18,2.5,,,4.1,114,,,,,,,,,34.787,26.7,,,,
"SSW28""",8/29/83,,0.15,4.6,0.18,2.5,,,3.7,105,,,,,,,,,34.795,26.6,,,,
"SSW28""",9/8/83,,0.16,5.0,0.17,2.4,,,4.0,112,,,,,,,,,34.768,26.5,,,,
"SSW28""",9/14/83,,0.17,5.3,0.17,2.4,,,2.8,78,,,,,,,,,34.837,27.0,,,,
"SSW28""",9/22/83,,0.16,5.0,0.23,3.2,,,5.0,142,,,,,,,,,34.866,26.8,,,,
"SSW28""",9/29/83,,0.17,5.3,0.16,2.2,,,2.9,82,,,,,,,,,34.890,26.3,,,,
"SSW28""",10/8/83,,0.15,4.6,0.22,3.1,,,4.1,115,,,,,,,,,34.886,26.8,,,,
"SSW28""",10/15/83,,0.15,4.6,0.19,2.7,,,4.1,115,,,,,,,,,34.927,26.6,,,,
"SSW28""",10/21/83,,0.15,4.6,0.16,2.2,,,5.0,139,,,,,,,,,34.929,26.7,,,,
"SSW28""",10/24/83,,0.15,4.6,0.09,1.3,,,4.4,125,,,,,,,,,34.924,27.5,,,,
"SSW28""",11/3/83,,0.16,5.0,0.18,2.5,,,2.5,71,,,,,,,,,34.890,26.5,,,,
"SSW28""",11/10/83,,0.13,4.0,0.14,2.0,,,2.5,71,,,,,,,,,35.003,26.1,,,,
"SSW28""",11/18/83,,0.11,3.4,0.11,1.5,,,2.7,76,,,,,,,,,35.002,26.4,,,,
"SSW28""",11/21/83,,0.13,4.0,0.18,2.5,,,2.9,80,,,,,,,,,35.003,26.6,,,,
"SSW28""",11/30/83,,0.17,5.3,0.07,1.0,,,2.6,73,,,,,,,,,35.003,26.4,,,,
"SSW28""",12/8/83,,0.17,5.3,0.17,2.4,,,2.2,63,,,,,,,,,35.047,26.5,,,,
"SSW28""",12/13/83,,0.21,6.5,0.10,1.4,,,2.4,68,,,,,,,,,34.961,26.4,,,,
"SSW28""",12/21/83,,0.18,5.6,0.07,1.0,,,2.6,73,,,,,,,,,34.995,25.7,,,,
"SSW28""",12/28/83,,0.18,5.6,0.12,1.7,,,1.9,53,,,,,,,,,34.894,25.9,,,,
"SSW28""",1/6/84,,0.13,4.0,0.15,2.1,,,2.2,62,,,,,,,,,34.972,25.6,,,,
"SSW28""",1/13/84,,0.15,4.6,0.24,3.4,,,2.3,64,,,,,,,,,34.965,25.7,,,,
"SSW28""",1/20/84,,0.12,3.7,0.12,1.7,,,1.8,51,,,,,,,,,35.016,25.3,,,,
"SSW28""",1/25/84,,0.15,4.6,0.18,2.5,,,2.8,79,,,,,,,,,34.886,25.6,,,,
"SSW28""",2/3/84,,0.13,4.0,0.12,1.7,,,2.0,56,,,,,,,,,35.047,25.1,,,,
"SSW28""",2/10/84,,0.14,4.3,0.21,2.9,,,3.2,89,,,,,,,,,34.980,24.8,,,,
"SSW28""",2/15/84,,0.14,4.3,0.09,1.3,,,2.2,61,,,,,,,,,34.972,25.2,,,,
"SSW28""",2/24/84,,0.14,4.3,0.12,1.7,,,2.8,79,,,,,,,,,34.932,25.2,,,,
"SSW28""",2/29/84,,0.17,5.3,0.12,1.7,,,3.0,84,,,,,,,,,34.933,25.2,,,,
"SSW28""",3/9/84,,0.18,5.6,0.10,1.4,,,2.8,78,,,,,,,,,34.893,25.5,,,,
"SSW28""",3/16/84,,0.19,5.9,0.21,2.9,,,4.5,126,,,,,,,,,34.801,26.0,,,,
"SSW28""",3/23/84,,0.18,5.6,0.14,2.0,,,3.6,102,,,,,,,,,34.796,26.0,,,,
"SSW28""",3/27/84,,0.19,5.9,0.17,2.4,,,3.8,106,,,,,,,,,34.739,25.5,,,,
"SSW28""",4/13/84,,0.18,5.6,0.05,0.7,,,2.3,65,,,,,,,,,34.850,25.1,,,,
"SSW28""",4/19/84,,0.18,5.6,0.22,3.1,,,3.3,94,,,,,,,,,34.864,25.4,,,,
"SSW28""",4/25/84,,0.17,5.3,0.22,3.1,,,2.3,65,,,,,,,,,34.931,25.3,,,,
"SSW28""",5/4/84,,0.16,5.0,0.27,3.8,,,2.9,82,,,,,,,,,34.899,25.7,,,,
"SSW28""",5/10/84,,0.18,5.6,0.19,2.7,,,2.4,67,,,,,,,,,34.880,25.6,,,,
"SSW28""",5/18/84,,0.17,5.3,0.27,3.8,,,3.8,106,,,,,,,,,34.811,25.3,,,,
"SSW28""",5/25/84,,0.14,4.3,0.25,3.5,,,4.3,120,,,,,,,,,34.794,25.9,,,,
"SSW28""",5/29/84,,0.21,6.5,0.25,3.5,,,2.6,72,,,,,,,,,34.820,25.5,,,,
"SSW28""",6/8/84,,0.18,5.6,0.14,2.0,,,2.3,65,,,,,,,,,34.971,26.1,,,,
"SSW28""",6/16/84,,0.16,5.0,0.14,2.0,,,2.4,67,,,,,,,,,34.842,26.1,,,,
"SSW28""",6/22/84,,0.16,5.0,0.22,3.1,,,2.8,79,,,,,,,,,34.921,26.4,,,,
"SSW28""",6/29/84,,0.18,5.6,0.39,5.5,,,5.1,144,,,,,,,,,34.938,26.5,,,,
"SSW28""",7/6/84,,0.15,4.6,0.22,3.1,,,3.6,102,,,,,,,,,34.976,26.5,,,,
"SSW28""",7/13/84,,0.13,4.0,0.22,3.1,,,4.0,112,,,,,,,,,34.933,26.7,,,,
"SSW28""",7/19/84,,0.11,3.4,0.24,3.4,,,3.3,92,,,,,,,,,34.882,26.7,,,,
"SSW28""",7/27/84,,0.12,3.7,0.19,2.7,,,3.1,88,,,,,,,,,34.961,26.9,,,,
"SSW28""",8/3/84,,0.21,6.5,0.19,2.7,,,2.0,55,,,,,,,,,35.004,27.0,,,,
"SSW28""",8/10/84,,0.15,4.6,0.11,1.5,,,2.5,70,,,,,,,,,35.000,25.9,,,,
"SSW28""",8/16/84,,0.16,5.0,0.11,1.5,,,1.4,40,,,,,,,,,34.992,26.3,,,,
"SSW28""",8/25/84,,0.20,6.2,0.24,3.4,,,3.2,90,,,,,,,,,35.012,26.6,,,,
"SSW28""",9/8/84,,0.20,6.2,0.12,1.7,,,2.0,55,,,,,,,,,35.018,26.4,,,,
"SSW28""",9/13/84,,0.25,7.7,0.24,3.4,,,3.0,85,,,,,,,,,34.893,26.7,,,,
"SSW28""",9/21/84,,0.18,5.6,0.15,2.1,,,1.4,40,,,,,,,,,34.961,27.0,,,,
"SSW28""",9/28/84,,0.19,5.9,0.21,2.9,,,3.2,91,,,,,,,,,35.059,27.5,,,,
"SSW28""",10/5/84,,0.21,6.5,0.25,3.5,,,4.0,111,,,,,,,,,35.064,27.4,,,,
"SSW28""",10/12/84,,0.14,4.3,0.14,2.0,,,2.3,65,,,,,,,,,35.112,27.2,,,,
"SSW28""",10/19/84,,0.14,4.3,0.20,2.8,,,2.0,55,,,,,,,,,35.147,27.7,,,,
"SSW28""",10/29/84,,0.16,5.0,0.19,2.7,,,1.1,30,,,,,,,,,35.053,27.1,,,,
"SSW28""",11/2/84,,0.15,4.6,0.20,2.8,,,1.8,50,,,,,,,,,35.094,27.6,,,,
"SSW28""",11/9/84,,0.16,5.0,0.13,1.8,,,1.4,40,,,,,,,,,35.083,26.7,,,,
"SSW28""",11/16/84,,0.16,5.0,0.10,1.4,,,1.4,40,,,,,,,,,35.167,26.3,,,,
"SSW28""",11/23/84,,0.12,3.7,0.20,2.8,,,1.6,45,,,,,,,,,35.196,26.3,,,,
"SSW28""",11/30/84,,0.14,4.3,0.23,3.2,,,2.0,55,,,,,,,,,35.183,26.2,,,,
"SSW28""",12/7/84,,0.18,5.6,0.19,2.7,,,1.9,54,,,,,,,,,35.181,26.1,,,,
"SSW28""",12/14/84,,0.19,5.9,0.25,3.5,,,1.5,43,,,,,,,,,34.751,25.3,,,,
"SSW28""",12/21/84,,0.19,5.9,0.36,5.0,,,5.0,140,,,,,,,,,35.006,25.7,,,,
"SSW28""",12/27/84,,0.18,5.6,0.24,3.4,,,1.5,43,,,,,,,,,34.554,24.9,,,,
"SSW28""",1/4/85,,0.19,5.9,0.35,4.9,,,3.0,84,,,,,,,,,34.504,24.9,,,,
"SSW28""",1/11/85,,0.18,5.6,0.25,3.5,,,2.2,63,,,,,,,,,34.642,24.9,,,,
"SSW28""",1/18/85,,0.15,4.6,0.25,3.5,,,1.9,53,,,,,,,,,34.835,24.5,,,,
"SSW28""",1/25/85,,0.15,4.6,0.18,2.5,,,2.4,68,,,,,,,,,34.882,25.1,,,,
"SSW28""",2/1/85,,0.15,4.6,0.35,4.9,,,3.6,100,,,,,,,,,34.916,24.5,,,,
"SSW28""",2/8/85,,0.14,4.3,0.32,4.5,,,2.1,58,,,,,,,,,34.914,24.8,,,,
"SSW28""",2/15/85,,0.14,4.3,0.23,3.2,,,1.4,40,,,,,,,,,34.965,24.7,,,,
"SSW28""",2/21/85,,0.18,5.6,0.25,3.5,,,3.0,84,,,,,,,,,34.784,25.0,,,,
"SSW28""",3/1/85,,0.18,5.6,0.24,3.4,,,2.5,69,,,,,,,,,34.544,24.7,,,,
"SSW28""",3/9/85,,0.14,4.3,0.21,2.9,,,1.7,48,,,,,,,,,34.756,24.4,,,,
"SSW28""",3/15/85,,0.17,5.3,0.18,2.5,,,1.7,48,,,,,,,,,34.690,24.4,,,,
"SSW28""",3/22/85,,0.20,6.2,0.60,8.4,,,16.0,449,,,,,,,,,34.914,24.0,,,,
"SSW28""",3/30/85,,0.16,5.0,0.24,3.4,,,2.4,68,,,,,,,,,34.803,24.5,,,,
"SSW28""",4/5/85,,0.15,4.6,0.22,3.1,,,2.1,58,,,,,,,,,34.933,23.9,,,,
"SSW28""",4/12/85,,0.18,5.6,0.22,3.1,,,1.7,47,,,,,,,,,35.028,23.9,,,,
"SSW28""",4/19/85,,0.20,6.2,0.22,3.1,,,2.1,58,,,,,,,,,34.729,23.7,,,,
"SSW28""",4/26/85,,0.19,5.9,0.27,3.8,,,2.9,82,,,,,,,,,34.823,24.2,,,,
"SSW28""",5/3/85,,0.19,5.9,0.18,2.5,,,2.6,74,,,,,,,,,34.776,24.9,,,,
"SSW28""",5/10/85,,0.24,7.4,0.28,3.9,,,3.0,85,,,,,,,,,34.607,24.8,,,,
"SSW28""",5/17/85,,0.22,6.8,0.30,4.2,,,1.6,45,,,,,,,,,34.489,24.9,,,,
"SSW28""",5/29/85,,0.23,7.1,0.18,2.5,,,2.4,68,,,,,,,,,34.552,25.6,,,,
"SSW28""",6/9/85,,0.23,7.1,0.29,4.1,,,2.8,78,,,,,,,,,34.580,25.8,,,,
"SSW28""",6/14/85,,0.22,6.8,0.26,3.6,,,4.1,115,,,,,,,,,34.540,25.8,,,,
"SSW28""",6/23/85,,0.22,6.8,0.24,3.4,,,3.2,89,,,,,,,,,34.580,26.1,,,,
"SSW28""",7/3/85,,0.21,6.5,0.26,3.6,,,3.6,102,,,,,,,,,34.629,26.0,,,,
"SSW28""",7/12/85,,0.20,6.2,0.26,3.6,,,2.6,72,,,,,,,,,34.743,26.9,,,,
"SSW28""",7/19/85,,0.20,6.2,0.23,3.2,,,2.7,77,,,,,,,,,34.760,26.9,,,,
"SSW28""",7/26/85,,0.18,5.6,0.29,4.1,,,2.2,61,,,,,,,,,34.783,26.8,,,,
"SSW28""",8/1/85,,0.18,5.6,0.24,3.4,,,2.9,80,,,,,,,,,34.711,26.5,,,,
"SSW28""",8/9/85,,0.17,5.3,0.16,2.2,,,2.4,66,,,,,,,,,34.825,26.2,,,,
"SSW28""",8/16/85,,0.18,5.6,0.19,2.7,,,2.9,83,,,,,,,,,34.812,26.4,,,,
"SSW28""",8/21/85,,0.23,7.1,0.19,2.7,,,4.1,116,,,,,,,,,34.779,27.2,,,,
"SSW28""",8/29/85,,0.21,6.5,0.17,2.4,,,2.6,72,,,,,,,,,34.800,27.3,,,,
"SSW28""",9/7/85,,0.18,5.6,0.20,2.8,,,2.5,69,,,,,,,,,34.948,26.5,,,,
"SSW28""",9/15/85,,0.18,5.6,0.22,3.1,,,2.7,74,,,,,,,,,34.938,27.0,,,,
"SSW28""",9/20/85,,0.19,5.9,0.27,3.8,,,3.8,106,,,,,,,,,34.848,27.4,,,,
"SSW28""",9/27/85,,0.21,6.5,0.27,3.8,,,1.9,53,,,,,,,,,34.854,27.2,,,,
"SSW28""",10/4/85,,0.21,6.5,0.22,3.1,,,2.7,74,,,,,,,,,34.815,27.5,,,,
"SSW28""",10/11/85,,0.18,5.6,0.20,2.8,,,2.3,64,,,,,,,,,34.896,26.9,,,,
"SSW28""",10/18/85,,0.19,5.9,0.30,4.2,,,2.3,64,,,,,,,,,34.885,26.7,,,,
"SSW28""",10/25/85,,0.18,5.6,0.20,2.8,,,1.9,53,,,,,,,,,34.891,26.4,,,,
"SSW28""",11/1/85,,0.19,5.9,0.22,3.1,,,2.7,74,,,,,,,,,34.892,26.6,,,,
"SSW28""",11/7/85,,0.16,5.0,0.23,3.2,,,1.7,47,,,,,,,,,34.896,26.9,,,,
"SSW28""",11/14/85,,0.14,4.3,0.24,3.4,,,1.5,42,,,,,,,,,34.915,27.0,,,,
"SSW28""",11/21/85,,0.14,4.3,0.27,3.8,,,1.9,52,,,,,,,,,34.823,26.8,,,,
"SSW28""",11/27/85,,0.15,4.6,0.34,4.8,,,1.7,47,,,,,,,,,34.923,26.2,,,,
"SSW28""",12/5/85,,0.12,3.7,0.32,4.5,,,2.0,57,,,,,,,,,34.937,26.3,,,,
"SSW28""",12/13/85,,0.11,3.4,0.24,3.4,,,2.0,57,,,,,,,,,34.997,26.4,,,,
"SSW28""",12/20/85,,0.12,3.7,0.32,4.5,,,2.0,57,,,,,,,,,34.989,25.4,,,,
"SSW28""",12/27/85,,0.11,3.4,0.22,3.1,,,1.5,42,,,,,,,,,35.027,25.7,,,,
"SSW28""",1/3/86,,0.20,6.2,0.25,3.5,0.15,2.1,2.3,64,0.5,15.5,6.0,84,0.45,0.34,,,35.044,25.5,,,,
"SSW28""",1/7/86,,0.15,4.6,0.22,3.1,0.15,2.1,2.5,69,0.5,14.6,6.2,86,0.52,0.20,,,35.047,25.4,,,,
"SSW28""",1/17/86,,0.18,5.6,0.22,3.1,0.18,2.5,3.0,85,0.5,13.9,5.1,71,0.44,0.11,,,34.969,25.6,,,,
"SSW28""",1/24/86,,0.20,6.2,0.19,2.7,0.20,2.8,1.9,53,0.5,15.5,5.6,79,0.48,0.53,,,34.844,25.2,,,,
"SSW28""",1/31/86,,0.18,5.6,0.22,3.1,0.18,2.5,2.5,69,0.5,15.5,5.6,78,0.42,0.37,,,34.889,25.0,,,,
"SSW28""",2/8/86,,0.19,5.9,0.19,2.7,0.15,2.1,1.7,48,0.5,15.2,5.2,73,0.45,0.37,,,34.770,25.6,,,,
"SSW28""",2/12/86,,0.20,6.2,0.16,2.2,0.20,2.8,2.7,75,0.5,16.7,5.6,78,0.53,0.32,,,34.627,25.6,,,,
"SSW28""",2/21/86,,0.24,7.4,0.34,4.8,0.28,3.9,3.0,85,0.6,17.0,5.6,78,1.27,0.41,,,34.724,25.6,,,,
"SSW28""",3/1/86,,0.22,6.8,0.22,3.1,0.43,6.0,1.7,48,0.5,16.4,5.5,77,0.45,,,,34.745,25.6,,,,
"SSW28""",3/7/86,,0.13,4.0,0.21,2.9,0.23,3.2,2.4,67,0.5,13.9,5.1,71,0.97,0.65,,,34.823,25.6,,,,
"SSW28""",3/13/86,,0.16,5.0,0.26,3.6,0.26,3.6,3.5,98,0.6,17.0,6.3,88,0.85,0.70,,,34.725,26.4,,,,
"SSW28""",3/20/86,,0.14,4.3,0.22,3.1,0.21,2.9,2.6,72,0.4,13.6,5.1,71,0.65,0.70,,,34.713,26.8,,,,
"SSW28""",3/27/86,,0.11,3.4,0.16,2.2,0.13,1.8,2.6,72,0.4,13.6,5.2,73,0.40,0.80,,,34.815,25.5,,,,
"SSW28""",4/14/86,,0.14,4.3,0.19,2.7,0.19,2.7,1.8,51,0.5,16.1,5.8,81,0.38,0.85,,,34.612,26.2,,,,
"SSW28""",4/19/86,,0.12,3.7,0.36,5.0,0.21,2.9,4.8,134,0.5,15.5,4.9,69,0.61,0.80,,,34.634,25.6,,,,
"SSW28""",4/26/86,,0.12,3.7,0.16,2.2,0.21,2.9,2.2,62,0.5,15.8,5.2,72,0.57,0.65,,,34.712,26.3,,,,
"SSW28""",4/30/86,,0.16,5.0,0.38,5.3,0.30,4.2,5.5,153,0.4,13.0,5.8,81,0.40,0.65,,,34.648,,,,,
"SSW28""",5/9/86,,0.15,4.6,0.16,2.2,0.24,3.4,2.0,56,0.4,13.3,5.2,72,0.43,0.70,,,34.658,,,,,
"SSW28""",5/16/86,,0.15,4.6,0.25,3.5,0.31,4.3,2.7,77,0.5,13.9,5.4,76,0.40,1.35,,,34.691,,,,,
"SSW28""",5/25/86,,0.14,4.3,0.28,3.9,0.26,3.6,3.3,92,0.5,13.9,5.3,74,0.39,0.65,,,34.655,,,,,
"SSW28""",5/30/86,,0.15,4.6,0.28,3.9,0.29,4.1,3.6,102,0.5,14.2,5.0,69,0.41,0.40,,,34.648,,,,,
"SSW28""",6/4/86,,0.15,4.6,0.22,3.1,0.29,4.1,2.2,61,0.5,14.2,5.0,71,0.41,0.60,,,34.677,,,,,
"SSW28""",6/13/86,,0.15,4.6,0.43,6.0,0.30,4.2,4.9,138,0.5,16.1,5.9,83,0.36,0.85,,,34.614,,,,,
"SSW28""",6/20/86,,0.23,7.1,0.25,3.5,0.09,1.3,2.5,71,0.5,15.8,10.3,145,0.43,0.80,,,34.719,,,,,
"SSW28""",6/27/86,,0.23,7.1,0.15,2.1,0.12,1.7,5.1,142,0.5,15.5,9.0,126,0.41,0.60,,,34.685,,,,,
"SSW28""",7/3/86,,0.16,5.0,0.20,2.8,0.14,2.0,1.9,53,0.5,14.9,5.7,80,0.42,1.05,,,34.899,,,,,
"SSW28""",7/12/86,,0.17,5.3,0.20,2.8,0.24,3.4,0.2,5,0.5,15.8,5.2,73,0.38,0.85,,,34.790,,,,,
"SSW28""",7/18/86,,0.22,6.8,0.20,2.8,0.24,3.4,2.1,58,0.5,15.5,9.7,136,0.50,0.90,,,34.749,,,,,
"SSW28""",7/25/86,,0.16,5.0,0.22,3.1,0.17,2.4,2.1,58,0.5,14.2,5.6,78,0.53,0.70,,,34.805,,,,,
"SSW28""",7/31/86,,0.17,5.3,0.20,2.8,0.23,3.2,2.2,63,0.5,14.6,5.5,76,0.57,1.10,,,34.695,,,,,
"SSW28""",8/7/86,,0.19,5.9,0.20,2.8,0.33,4.6,1.9,53,0.5,16.1,5.2,72,0.38,0.55,,,34.733,,,,,
"SSW28""",8/18/86,,0.14,4.3,0.10,1.4,0.17,2.4,2.0,57,0.5,14.2,5.0,70,0.44,1.25,,,34.753,,,,,
"SSW28""",8/28/86,,0.15,4.6,0.21,2.9,0.29,4.1,2.2,62,0.5,15.5,5.7,79,0.43,1.45,,,34.749,,,,,
"SSW28""",9/4/86,,0.11,3.4,0.10,1.4,0.22,3.1,1.5,42,0.5,15.5,6.7,93,0.42,0.50,,,34.875,,,,,
"SSW28""",9/11/86,,0.15,4.6,0.21,2.9,0.22,3.1,2.8,78,0.5,14.6,5.7,80,0.41,0.40,,,34.720,,,,,
"SSW28""",9/17/86,,0.14,4.3,0.36,5.0,0.19,2.7,3.2,88,0.4,12.4,5.7,80,0.47,0.40,,,34.716,,,,,
"SSW28""",9/24/86,,0.12,3.7,0.26,3.6,0.19,2.7,1.9,52,0.4,13.3,5.4,75,0.46,0.65,,,34.828,,,,,
"SSW28""",9/30/86,,0.12,3.7,0.10,1.4,0.22,3.1,1.5,42,0.5,14.2,6.7,93,0.47,0.65,,,34.784,,,,,
"SSW28""",10/9/86,,0.11,3.4,0.18,2.5,0.24,3.4,2.0,57,0.4,11.8,5.9,83,0.38,1.60,,,34.730,,,,,
"SSW28""",10/16/86,,0.09,2.8,0.18,2.5,0.23,3.2,1.7,47,0.4,12.1,6.6,92,0.41,0.85,,,34.796,,,,,
"SSW28""",10/23/86,,0.09,2.8,0.13,1.8,0.23,3.2,1.7,47,0.4,13.0,6.2,87,0.39,1.65,,,34.798,,,,,
"SSW28""",10/30/86,,0.11,3.4,0.21,2.9,0.23,3.2,2.0,57,0.4,13.0,6.3,88,0.38,1.00,,,34.840,,,,,
"SSW28""",11/6/86,,0.11,3.4,0.16,2.2,0.25,3.5,1.9,52,0.4,13.0,6.4,89,0.39,0.45,,,34.841,,,,,
"SSW28""",11/13/86,,0.09,2.8,0.13,1.8,0.23,3.2,2.2,62,0.4,13.0,6.0,84,0.39,2.55,,,34.754,,,,,
"SSW28""",11/20/86,,0.11,3.4,0.12,1.7,0.22,3.1,1.9,52,0.4,13.3,6.6,92,0.39,0.70,,,34.792,,,,,
"SSW28""",11/28/86,,0.11,3.4,0.21,2.9,0.23,3.2,2.2,62,0.5,15.5,6.1,85,0.39,0.65,,,34.825,,,,,
"SSW28""",12/4/86,,0.15,4.6,0.21,2.9,0.10,1.4,3.0,83,0.4,13.0,6.6,92,0.47,1.05,,,34.761,,,,,
"SSW28""",12/11/86,,0.09,2.8,0.19,2.7,0.11,1.5,2.6,73,0.4,12.1,5.8,81,0.58,1.00,,,34.930,,,,,
"SSW28""",12/19/86,,0.12,3.7,0.22,3.1,0.11,1.5,2.4,68,0.5,14.2,6.2,87,0.42,0.90,,,34.833,,,,,
"SSW28""",12/23/86,,0.14,4.3,0.30,4.2,0.18,2.5,3.9,109,0.5,14.6,6.2,87,0.42,0.65,,,34.723,,,,,
"SSW28""",12/30/86,,0.15,4.6,0.14,2.0,0.12,1.7,2.2,62,0.5,14.6,5.3,75,0.41,0.80,,,34.678,,,,,
"SSW28""",1/8/87,,0.14,4.3,0.22,3.1,0.15,2.1,2.4,68,0.5,14.2,5.9,83,0.42,0.90,,,34.854,26.0,8.26,6.50,,
"SSW28""",1/14/87,,0.14,4.3,0.25,3.5,0.24,3.4,2.2,62,0.5,15.8,7.3,102,0.43,0.85,,,34.805,25.7,8.22,6.45,,
"SSW28""",1/21/87,,0.14,4.3,0.14,2.0,0.22,3.1,2.0,57,0.5,14.6,6.2,86,0.48,0.65,,,34.797,25.3,8.18,6.51,,
"SSW28""",1/28/87,,0.16,5.0,0.27,3.8,0.22,3.1,2.6,73,0.5,14.9,6.8,96,0.46,1.50,,,34.711,25.6,8.26,7.13,,
"SSW28""",2/6/87,,0.13,4.0,0.15,2.1,0.09,1.3,3.0,83,0.4,12.1,5.5,77,0.54,0.80,,,,24.8,8.27,6.90,,
"SSW28""",2/12/87,,0.15,4.6,0.15,2.1,0.12,1.7,1.9,52,0.4,13.3,5.8,81,0.47,0.55,,,,24.8,8.21,7.01,,
"SSW28""",2/19/87,,0.15,4.6,0.19,2.7,0.17,2.4,2.4,68,0.5,13.9,5.6,79,0.43,0.90,,,,24.7,8.19,6.60,,
"SSW28""",2/26/87,,0.17,5.3,0.28,3.9,0.24,3.4,2.8,78,0.5,14.2,5.9,82,0.43,0.80,,,,24.6,8.22,6.68,,
"SSW28""",3/3/87,,0.15,4.6,0.15,2.1,0.21,2.9,2.0,57,0.5,14.6,5.7,79,0.46,0.75,,,,24.5,8.19,7.02,,
"SSW28""",3/10/87,,0.13,4.0,0.25,3.5,0.28,3.9,1.9,52,0.5,15.2,5.7,80,0.41,0.75,,,,24.5,8.17,6.75,,
"SSW28""",3/17/87,,0.15,4.6,0.25,3.5,0.28,3.9,1.7,47,0.5,16.4,5.8,82,0.41,0.75,,,,25.1,8.22,7.07,,
"SSW28""",3/24/87,,0.15,4.6,0.25,3.5,0.33,4.6,1.9,52,0.5,16.7,9.3,130,0.54,0.60,,,,25.0,8.16,6.89,,
"SSW28""",4/3/87,,0.23,7.1,0.18,2.5,0.33,4.6,2.5,69,0.6,17.0,5.4,75,0.69,0.90,,,34.581,25.0,8.25,6.64,,
"SSW28""",4/9/87,,0.17,5.3,0.15,2.1,0.23,3.2,3.0,85,0.5,16.4,6.6,92,0.46,0.35,,,34.546,25.1,8.23,6.63,,
"SSW28""",4/16/87,,0.15,4.6,0.21,2.9,0.23,3.2,4.2,117,0.5,14.9,5.5,77,0.45,0.85,,,34.577,25.1,8.24,6.40,,
"SSW28""",4/21/87,,0.13,4.0,0.06,0.8,0.28,3.9,1.3,37,0.5,15.2,6.0,84,0.41,0.70,,,34.748,24.7,8.25,7.05,,
"SSW28""",4/28/87,,0.15,4.6,0.15,2.1,0.28,3.9,2.9,80,0.5,15.8,5.0,70,0.54,0.85,,,34.652,25.2,8.23,7.00,,
"SSW28""",5/5/87,,0.14,4.3,0.14,2.0,0.30,4.2,1.9,53,0.5,15.2,6.0,84,0.42,0.85,,,34.694,24.9,8.22,6.84,,
"SSW28""",5/12/87,,0.16,5.0,0.21,2.9,0.33,4.6,3.2,91,0.5,16.4,5.9,83,0.41,0.60,,,34.623,24.9,8.23,7.16,,
"SSW28""",5/21/87,,0.13,4.0,0.27,3.8,0.30,4.2,3.4,96,0.5,16.4,5.5,77,0.41,0.80,,,34.641,25.5,8.23,6.98,,
"SSW28""",5/26/87,,0.13,4.0,0.15,2.1,0.28,3.9,2.9,80,0.5,14.9,5.1,71,0.41,0.60,,,34.692,25.6,8.24,7.27,,
"SSW28""",6/2/87,,0.13,4.0,0.15,2.1,0.29,4.1,1.3,37,0.5,14.9,5.3,74,0.60,0.70,,,34.553,25.6,8.18,7.07,,
"SSW28""",6/9/87,,0.15,4.6,0.30,4.2,0.17,2.4,4.3,120,0.5,16.1,8.9,125,0.49,0.75,,2.32,34.542,25.9,8.18,7.26,,
"SSW28""",6/17/87,,0.13,4.0,0.22,3.1,0.21,2.9,3.2,90,0.6,17.3,8.7,122,0.41,0.60,,2.32,34.736,26.3,8.20,6.59,,
"SSW28""",7/2/87,,0.13,4.0,0.16,2.2,0.23,3.2,2.3,64,0.5,16.1,9.0,125,0.40,0.60,,2.31,34.644,26.2,8.23,6.44,,
"SSW28""",7/11/87,,0.13,4.0,0.16,2.2,0.23,3.2,2.1,58,0.5,16.7,7.6,107,0.39,0.50,,2.31,34.612,26.7,8.23,8.06,,
"SSW28""",7/18/87,,0.13,4.0,0.19,2.7,0.23,3.2,1.6,45,0.5,16.7,7.4,104,0.37,0.85,,2.31,34.585,26.8,8.23,6.89,,
"SSW28""",7/28/87,,0.12,3.7,0.16,2.2,0.21,2.9,1.9,53,0.5,15.2,7.6,107,0.38,0.45,,2.31,34.673,26.8,8.16,7.08,,
"SSW28""",7/28/87,,0.12,3.7,0.24,3.4,0.21,2.9,2.7,74,0.5,13.9,6.8,95,0.40,0.40,,2.31,34.649,26.8,8.17,7.80,,
"SSW28""",8/8/87,,0.12,3.7,0.19,2.7,0.21,2.9,2.5,69,0.5,15.8,7.2,101,0.40,0.40,,2.31,34.690,28.2,8.21,6.68,,
"SSW28""",8/15/87,,0.12,3.7,0.18,2.5,0.22,3.1,3.5,99,0.5,15.2,5.3,74,0.46,0.60,,2.32,34.772,28.1,8.22,6.64,,
"SSW28""",8/21/87,,0.11,3.4,0.15,2.1,0.24,3.4,2.1,58,0.5,16.1,6.4,89,0.53,0.70,,2.32,34.751,27.6,8.20,6.70,,
"SSW28""",8/27/87,,0.14,4.3,0.21,2.9,0.56,7.8,2.1,58,0.5,16.7,7.2,101,0.53,0.55,,2.32,34.767,28.1,8.21,6.65,,
"SSW28""",9/4/87,,0.14,4.3,0.21,2.9,0.24,3.4,2.6,73,0.5,16.7,5.7,80,0.55,0.65,,2.32,34.764,28.5,8.23,6.85,,
"SSW28""",9/11/87,,0.12,3.7,0.32,4.5,0.22,3.1,3.2,89,0.5,16.1,5.9,82,0.52,0.45,,2.31,34.704,28.1,8.21,6.85,,
"SSW28""",9/18/87,,0.10,3.1,0.12,1.7,0.24,3.4,1.5,42,0.4,13.0,5.4,76,0.52,0.65,,2.33,34.887,27.4,8.23,6.74,,
"SSW28""",9/26/87,,0.15,4.6,0.26,3.6,0.35,4.9,2.6,73,0.5,15.5,6.6,92,0.52,0.60,,2.32,34.725,28.1,8.25,6.96,,
"SSW28""",10/3/87,,0.11,3.4,0.21,2.9,0.27,3.8,2.6,73,0.5,14.9,5.4,76,0.51,0.65,,2.33,34.902,28.2,8.28,6.80,,
"SSW28""",10/9/87,,0.11,3.4,0.23,3.2,0.27,3.8,2.6,73,0.4,13.3,5.9,82,0.51,0.45,,2.32,34.842,27.7,8.22,6.64,,
"SSW28""",10/16/87,,0.12,3.7,0.26,3.6,0.18,2.5,1.7,47,0.5,15.2,5.0,70,0.53,0.50,,2.32,34.799,27.9,8.28,6.79,,
"SSW28""",10/22/87,,0.13,4.0,0.24,3.4,0.20,2.8,2.0,57,0.5,14.9,5.5,77,0.53,0.50,,2.31,34.747,27.5,8.25,6.72,,
"SSW28""",10/29/87,,0.15,4.6,0.35,4.9,0.32,4.5,2.4,68,0.5,14.9,5.6,79,0.50,0.50,,2.32,34.817,27.7,8.24,6.92,,
"SSW28""",11/6/87,,0.12,3.7,0.16,2.2,0.18,2.5,2.4,68,0.5,15.2,4.8,67,0.47,1.10,,2.32,34.824,27.5,8.21,7.01,,
"SSW28""",11/13/87,,0.13,4.0,0.27,3.8,0.18,2.5,3.2,88,0.5,16.4,5.9,83,0.51,1.15,,2.32,34.766,27.4,8.24,6.59,,
"SSW28""",11/21/87,,0.17,5.3,0.27,3.8,0.20,2.8,2.6,73,0.6,18.6,5.1,71,0.48,0.85,,2.32,34.779,26.8,8.23,6.73,,
"SSW28""",11/26/87,,0.15,4.6,0.30,4.2,0.23,3.2,2.2,62,0.6,18.3,4.9,69,0.47,4.50,,2.31,34.765,27.2,8.25,7.28,,
"SSW28""",12/3/87,,0.15,4.6,0.27,3.8,0.23,3.2,3.7,104,0.5,15.2,5.0,70,0.50,1.00,,2.30,34.752,26.6,8.27,6.98,,
"SSW28""",12/12/87,,0.12,3.7,0.24,3.4,0.23,3.2,2.2,62,0.5,14.2,4.8,67,0.54,1.00,,2.31,34.799,27.7,8.25,7.08,,
"SSW28""",12/20/87,,0.11,3.4,0.35,4.9,0.25,3.5,2.4,68,0.4,13.0,4.9,69,0.52,2.00,,2.33,34.833,25.4,8.28,7.08,,
"SSW28""",12/24/87,,0.13,4.0,0.57,8.0,0.32,4.5,4.3,120,0.5,14.2,5.2,73,0.52,0.10,,2.23,34.774,25.3,8.27,7.17,,
"SSW28""",12/31/87,,0.12,3.7,0.43,6.0,0.31,4.3,3.8,107,0.5,13.9,4.9,69,0.53,0.40,,2.32,34.806,25.6,8.24,7.13,,
"SSW28""",1/13/88,,0.13,4.0,0.22,3.1,0.17,2.4,1.7,47,0.5,14.9,4.8,67,0.56,0.35,,2.31,34.762,25.9,8.24,6.97,,
"SSW28""",1/22/88,,0.16,5.0,0.27,3.8,0.20,2.8,2.1,58,0.5,14.9,5.2,72,0.56,0.30,,2.32,34.796,25.2,8.25,7.10,,
"SSW28""",1/29/88,,0.13,4.0,0.27,3.8,0.17,2.4,1.7,47,0.5,16.4,4.9,69,0.56,0.55,,2.32,34.820,25.2,8.28,7.07,,
"SSW28""",2/5/88,,0.15,4.6,0.32,4.5,0.19,2.7,2.4,68,0.5,16.7,4.8,67,0.54,0.45,,2.32,34.806,25.3,8.25,7.07,,
"SSW28""",2/12/88,,0.15,4.6,0.30,4.2,0.22,3.1,2.6,73,0.5,16.7,4.6,64,0.54,0.60,,2.32,34.747,25.8,8.22,7.09,,
"SSW28""",2/21/88,,0.13,4.0,0.25,3.5,0.17,2.4,1.5,42,0.5,16.4,4.7,66,0.55,0.65,,2.32,34.831,25.7,8.27,7.05,,
"SSW28""",2/26/88,,0.19,5.9,0.35,4.9,0.20,2.8,2.8,78,0.6,17.7,4.8,68,0.54,0.95,,2.30,34.577,25.6,8.27,7.17,,
"SSW28""",3/6/88,,0.19,5.9,0.31,4.3,0.15,2.1,2.2,63,0.5,16.1,4.7,65,0.53,0.60,,2.30,34.509,25.3,8.18,7.33,,